Regional Weather Roundup
Issued by NWS

Home | Current Version | Previous Version | Graphics & Text | Print | Product List | Glossary On
Versions: 1 2 3 4 5 6 7 8 9 10 11 12 13 14 15 16 17 18 19 20 21 22 23 24 25 26 27 28 29 30 31 32 33 34 35 36 37 38 39 40 41 42 43 44 45 46 47 48 49 50
000
ASUS43 KMKX 210721
RWRWI

WISCONSIN REGIONAL WEATHER ROUNDUP
NATIONAL WEATHER SERVICE MILWAUKEE/SULLIVAN WI
200 AM CDT TUE APR 21 2015

NOTE: "FAIR" INDICATES FEW OR NO CLOUDS BELOW 12,000 FEET WITH NO
SIGNIFICANT WEATHER AND/OR OBSTRUCTIONS TO VISIBILITY.

WIZ001-002-006>008-014>016-023>028-210800-
NORTHWEST WISCONSIN

CITY           SKY/WX    TMP DP  RH WIND       PRES   REMARKS
SUPERIOR ARPT  CLOUDY    34  29  82 W14       29.39S WCI  25
ASHLAND        CLOUDY    33  32  96 W10G18    29.35S WCI  25
HAYWARD        LGT SNOW  32  29  88 W6        29.38F FOG     WCI  26
SIREN          LGT SNOW  33  32  96 W9        29.44F WCI  25
CUMBERLAND     LGT SNOW  32  30  93 W14       29.44S WCI  22
RICE LAKE      LGT SNOW  33  31  94 W12       29.45F WCI  24
CHETEK         FLURRIES  33  31  93 W6G17     29.44F WCI  27
LADYSMITH      LGT SNOW  34  32  92 W12       29.42F WCI  26
EAU CLAIRE     CLOUDY    36  29  75 W13G25    29.46F WCI  27
MENOMONIE      CLOUDY    35  31  85 W13G20    29.48S WCI  26
NEW RICHMOND   LGT SNOW  33  32  96 W14       29.49F WCI  23
OSCEOLA        LGT SNOW  34  31  91 W13       29.52F WCI  25
$$

WIZ003>005-009-010-017-018-210800-
NORTH CENTRAL WISCONSIN

CITY           SKY/WX    TMP DP  RH WIND       PRES   REMARKS
MANITOWISH WTR LGT SNOW  31  31  99 W10G16    29.31F WCI  23
ARBOR VITAE      N/A     34  31  90 W13G21    29.31F WCI  25
WOODRUFF         N/A     34  31  90 W13G21    29.31F WCI  25
RHINELANDER    CLOUDY    32  28  85 W13       29.34F WCI  22
EAGLE RIVER    LGT SNOW  32  28  83 W9        29.30F WCI  24
LAND O LAKES   LGT SNOW  32  30  92 W7        29.30F WCI  26
PHILLIPS       LGT SNOW  32  30  93 W8        29.35F WCI  25
TOMAHAWK       CLOUDY    32  29  88 CALM      29.36F
MEDFORD        FLURRIES  32  31  94 W12G18    29.39F WCI  23
MERRILL        CLOUDY    34  31  88 W12       29.38F WCI  25
$$

WIZ029-030-035-036-043>047-210800-
CENTRAL WISCONSIN

CITY           SKY/WX    TMP DP  RH WIND       PRES   REMARKS
WAUSAU         CLOUDY    34  29  82 W14G21    29.39S WCI  25
MOSINEE        CLOUDY    34  32  93 W14       29.42F WCI  24
MARSHFIELD     FLURRIES  35  30  82 W10       29.42F WCI  27
STEVENS POINT  LGT RAIN  34  30  86 W9G16     29.43S WCI  26
WAUPACA        CLOUDY    39  32  73 W13G20    29.44S WCI  32
WAUTOMA        CLOUDY    39  30  70 W13G28    29.46F WCI  31
WISC RAPIDS    CLOUDY    37  28  70 W10       29.46S WCI  30
CAMP DOUGLAS   LGT RAIN  34  34 100 NW9       29.47S WCI  26
$$

WIZ011>013-019>022-031-037>040-048>050-210800-
NORTHEAST WISCONSIN

CITY           SKY/WX    TMP DP  RH WIND       PRES   REMARKS
ANTIGO         CLOUDY    32  29  89 W15       29.36F WCI  22
SHAWANO        CLOUDY    39  29  67 SW13      29.40F WCI  32
OCONTO         MOCLDY    37  28  72 SW8       29.40F WCI  30
STURGEON BAY   CLOUDY    37  27  65 SW13      29.41F WCI  29
GREEN BAY      CLOUDY    40  31  70 SW9       29.42F WCI  34
MANITOWOC      LGT RAIN  41  30  65 SW8       29.44F
APPLETON       CLOUDY    37  30  75 SW14      29.43F WCI  29
CLINTONVILLE   CLOUDY    37  30  75 SW9       29.42F WCI  31
OSHKOSH        CLOUDY    40  29  64 VRB7G16   29.44F
$$

WIZ032>034-041-042-053>061-210800-
SOUTHWEST WISCONSIN

CITY           SKY/WX    TMP DP  RH WIND       PRES   REMARKS
LA CROSSE      CLOUDY    40  31  70 W16       29.52S WCI  31
SPARTA         LGT RAIN  37  32  81 W15       29.50S WCI  28
VIROQUA        CLOUDY    36  33  89 W10G23    29.51F WCI  28
BOSCOBEL       MOCLDY    41  30  65 W14G24    29.56F
PRAIRIE DU CHI PTCLDY    39  29  68 W12       29.58F WCI  32
PLATTEVILLE    PTCLDY    38  31  76 W14       29.57F WCI  30
$$

WIZ056-057-062-063-064-067-068-210800-
SOUTH CENTRAL WISCONSIN

CITY           SKY/WX    TMP DP  RH WIND       PRES   REMARKS
REEDSBURG      MOCLDY    37  31  81 W15G22    29.50F WCI  28
BARABOO/DELLS  PTCLDY    37  30  75 W12       29.49F WCI  29
LONE ROCK      CLOUDY    40  31  70 W13G25    29.53F WCI  32
MINERAL POINT  MOCLDY    37  32  81 W13       29.54F WCI  29
MADISON        MOCLDY    40  29  64 W8        29.51F WCI  34
MIDDLETON      CLOUDY    41  30  65 W13       29.52F
WATERTOWN      CLOUDY    40  32  74 SW12      29.51S WCI  32
MONROE         CLEAR     36  32  87 W17       29.55F WCI  25
JANESVILLE     MOCLDY    39  32  75 SW14      29.55F WCI  31
$$

WIZ051-052-058>065-066-070>072-210800-
SOUTHEAST WISCONSIN

CITY           SKY/WX    TMP DP  RH WIND       PRES   REMARKS
MILWAUKEE      CLOUDY    42  30  62 SW15      29.53F
WAUKESHA       MOCLDY    37  30  75 SW12      29.53S WCI  30
MILWAUKEE/TIMM MOCLDY    39  30  70 W10G26    29.52F WCI  32
RACINE         CLOUDY    42  31  64 SW10G18   29.55F
BURLINGTON     MOCLDY    38  31  77 SW13G18   29.55S WCI  30
KENOSHA        CLOUDY    41  32  70 W17G25    29.55F
FOND DU LAC    CLOUDY    40  29  64 SW13G20   29.47F WCI  32
SHEBOYGAN      CLOUDY    40  29  64 SW14      29.46F WCI  32
WEST BEND      CLOUDY    37  28  70 W15G21    29.48F WCI  28
JUNEAU         PTCLDY    37  30  78 SW14      29.50F WCI  28
$$

LSZ147-162-210800-
LAKE SUPERIOR

STATION/POSITION TIME  TEMP    WIND        PRES    WAVE
                       AIR SEA DIR/SP/G            HT/PER
                 (UTC) (F)     (DEG/KT/KT) (MB)    (FT/S)
DEVILS ISLAND    0700   36     260/ 21/ 26  992.8F
PORT WING        0640   36     260/ 15/ 22  994.6S
SAXON HARBOR     0600   35     220/  5/ 12  993.6
$$

LMZ867-665-643>646-210800-
LAKE MICHIGAN

STATION/POSITION TIME  TEMP    WIND        PRES    WAVE
                       AIR SEA DIR/SP/G            HT/PER
                 (UTC) (F)     (DEG/KT/KT) (MB)    (FT/S)
CHAMBERS ISLAND  0600   39     210/  9/ 16  995.6F
NORTHPORT PIER   0600   39     220/  4/  9  995.3F
SISTER BAY       0602   40     240/ 15/ 19   N/A
KEWAUNEE LAKESHO 0600   41     250/  8/ 14  996.3F
SHEBOYGAN LAKESH 0700   42     230/ 14/ 17  998.2F
PORT WASHINGTON  0600   43     260/  7/ 15 1000.0
MILWAUKEE LAKESH 0700   43     250/ 14/ 20   N/A
KENOSHA   LAKESH 0700   42     240/ 13/ 19 1001.0F
$$

TC  - TEMPERATURE IN CELSIUS
VSB - VISIBILITY IN STATUTE MILES
WCI - WIND CHILL INDEX
HX  - HEAT INDEX



USA.gov is the U.S. government's official web portal to all federal, state and local government web resources and services.